EHI
3 4 2 0 0 0 0 0 1 2 4 4 3 1 0 0 0 0 0 0 0 0 0 0 0 0 0 0 0 0 0 0 0 0 0 0 0 0 0 0 0 0 0
3 5 3 0 0 0 0 1 2 3 4 5 4 1 0 0 0 0 0 0 0 0 0 0 0 0 0 0 0 0 0 0 0 0 0 0 0 0 0 0 0 0 0
4 6 4 0 0 0 1 3 5 6 6 5 3 1 0 0 0 0 0 0 0 0 0 0 0 0 0 0 0 0 0 0 0 0 0 0 0 0 0 0 0 0 0
4 6 4 1 0 1 2 5 7 9 8 5 2 1 0 0 0 0 0 0 0 0 0 0 0 0 0 0 0 0 0 0 0 0 0 0 0 0 0 0 0 0 0
2 4 5 2 0 1 2 4 7 9 9 7 4 2 1 1 1 0 0 0 0 0 0 0 0 0 0 0 0 0 0 0 0 0 0 0 0 1 0 0 0 0 0
0 3 6 4 1 0 1 2 4 8 10 9 7 5 4 3 2 1 1 0 0 0 0 0 0 0 0 0 0 0 0 0 0 0 0 0 1 2 1 0 0 0 0
0 3 7 6 1 0 0 2 4 8 12 12 10 8 7 5 3 2 1 0 0 0 0 0 0 0 0 0 0 0 0 0 0 0 0 0 1 2 1 0 0 0 0
0 3 7 5 1 0 1 3 6 9 11 12 12 11 9 7 3 1 1 0 0 0 0 0 0 0 0 0 0 0 0 0 0 0 0 1 3 3 1 0 0 0 0
0 1 3 2 0 0 0 2 4 6 7 8 10 11 10 8 5 3 2 1 0 0 0 0 0 0 0 0 0 0 0 0 0 0 0 6 12 8 1 0 0 0 0
0 0 0 0 0 0 0 0 1 1 2 2 4 6 7 6 6 5 4 3 2 1 0 0 0 0 0 0 1 1 1 0 0 0 0 12 22 13 1 0 0 0 0
0 0 0 0 0 0 0 0 0 0 1 1 1 2 2 2 3 3 5 7 6 2 1 0 0 0 0 1 2 2 1 0 0 0 4 18 25 12 1 0 0 0 0
0 0 0 0 0 0 0 0 0 1 2 3 3 2 1 0 1 1 5 8 6 2 1 1 1 0 0 2 4 3 1 0 0 0 8 23 22 8 0 0 0 0 0
0 0 0 0 0 1 1 0 0 1 4 5 4 3 2 1 2 2 4 6 4 2 1 2 2 1 2 4 5 2 0 0 0 1 8 18 15 4 0 0 0 0 0
1 0 0 0 1 2 3 2 2 3 5 5 5 4 3 2 3 3 5 5 3 2 2 2 2 3 4 5 4 2 1 1 1 2 6 11 9 3 0 0 0 0 0
2 2 1 1 3 6 9 9 9 7 5 5 4 3 3 3 4 5 7 8 6 5 6 6 6 7 9 8 6 4 3 2 2 3 6 8 8 5 2 0 0 0 0
3 4 4 5 8 13 16 16 13 9 6 5 4 4 4 5 7 9 12 14 13 12 15 16 15 18 21 19 15 12 8 5 6 8 8 9 11 8 4 1 0 0 1
6 7 7 8 12 18 21 20 15 11 7 6 7 7 6 7 11 15 17 19 22 24 28 30 29 33 35 32 28 23 18 14 13 14 14 15 14 9 7 5 3 1 2
14 14 12 11 14 19 24 23 18 15 12 10 11 12 10 9 13 18 19 21 27 32 37 39 41 45 47 45 41 36 30 24 19 16 16 17 15 11 11 11 8 4 3
23 22 20 18 17 16 19 19 17 15 13 12 14 15 14 12 13 16 18 19 23 31 37 41 48 53 56 54 48 42 37 31 24 17 13 13 13 13 14 14 12 7 5
31 29 25 21 15 9 8 10 11 10 8 8 10 11 11 10 10 11 13 12 14 21 29 37 44 50 56 57 49 42 38 33 28 21 14 10 9 10 11 12 12 10 8
35 31 23 15 9 4 2 4 6 5 3 2 3 4 4 4 4 5 7 7 9 13 19 26 33 40 48 53 50 43 36 33 29 24 18 12 7 6 7 9 12 13 12
36 28 17 10 5 3 2 2 3 4 3 2 2 2 1 0 0 1 3 4 5 8 9 13 20 27 36 46 50 45 37 32 29 24 19 15 10 8 8 9 12 13 13
29 22 12 8 7 6 4 4 5 6 5 4 4 3 1 0 0 0 1 1 2 3 4 5 11 17 24 35 44 45 40 34 29 23 17 15 14 12 10 9 9 9 9
16 12 8 8 11 13 12 11 10 9 6 4 3 3 1 0 0 0 0 0 0 1 1 1 4 9 15 23 33 38 36 33 29 21 15 13 14 14 12 9 7 6 6
4 4 5 9 17 23 24 21 18 13 9 6 5 4 3 2 0 0 0 0 0 0 0 0 1 4 9 14 22 27 30 29 24 17 11 11 11 11 12 10 9 8 7
1 2 4 12 23 31 31 28 24 17 13 11 9 7 5 3 1 0 0 0 0 0 0 0 0 2 5 10 17 22 25 25 20 11 8 9 8 9 11 11 10 10 9
Wind_Speed
13 17 20 16 15 14 14 13 13 13 13 13 13 12 11 10 9 8 8 7 7 7 7 8 8 8 8 8 9 9 9 8 8 9 9 8 7 6 7 6 6 8 10
16 19 20 17 16 15 14 14 13 13 13 13 12 11 11 10 9 8 7 7 6 6 6 6 6 7 7 7 8 8 8 7 7 7 7 8 6 5 5 2 4 8 9
17 18 19 16 16 15 14 14 13 13 12 12 11 11 10 9 8 8 7 6 6 5 5 5 5 5 6 6 6 6 6 6 6 5 7 7 9 6 4 3 2 7 7
17 17 17 18 16 15 14 13 13 12 12 11 11 10 9 9 8 7 6 5 5 4 4 4 4 4 4 4 5 5 5 4 4 6 8 3 6 9 6 5 5 6 7
16 15 17 18 16 15 14 13 13 12 11 11 10 10 9 8 7 7 6 5 4 3 3 3 3 3 3 3 4 4 4 4 4 10 4 2 2 9 6 7 8 8 8
16 15 18 18 16 15 14 13 12 12 11 11 10 9 9 8 7 6 6 5 4 4 4 3 3 3 3 4 4 4 4 5 8 10 5 6 4 9 6 8 10 10 10
16 14 18 17 16 15 14 13 13 12 11 11 10 10 9 8 8 7 7 6 6 5 5 5 5 5 5 5 6 6 6 6 10 9 6 7 4 7 6 9 10 11 12
14 13 16 16 15 15 14 13 13 12 11 11 11 10 10 9 9 8 8 8 8 8 8 7 7 7 7 7 7 7 8 10 11 10 9 8 5 7 8 10 11 12 13
13 12 13 15 14 14 13 13 12 12 11 11 11 10 10 10 10 10 10 10 10 10 9 9 9 9 9 9 9 9 9 10 12 10 9 7 8 9 10 11 12 12 13
11 11 11 12 12 12 13 13 12 11 11 11 11 11 11 11 12 12 12 12 12 11 11 11 11 11 10 10 10 11 11 11 14 13 8 6 10 9 11 13 13 13 13
10 10 10 11 10 10 10 11 12 12 12 11 12 13 12 11 12 11 14 10 11 12 12 12 12 12 11 12 14 13 12 10 12 9 7 4 9 9 12 14 14 14 14
13 12 10 10 10 10 7 7 8 10 10 10 9 9 9 9 8 8 3 7 11 13 13 14 13 12 13 10 12 14 9 11 10 8 6 8 9 11 13 14 14 15 15
12 12 11 10 9 9 7 6 5 5 5 8 10 9 8 8 7 7 6 7 10 13 12 11 13 11 10 8 6 7 9 8 6 6 6 8 10 12 13 13 14 15 15
12 12 11 11 9 8 7 5 5 5 5 6 7 9 8 6 7 7 6 7 6 6 7 8 7 9 9 10 10 10 9 7 7 6 5 6 9 11 13 13 13 14 15
10 11 10 9 9 8 7 6 6 6 6 7 6 7 8 8 8 8 6 6 8 7 7 8 8 9 9 10 10 10 10 10 10 9 6 7 10 11 13 13 13 13 13
10 10 9 10 9 8 7 7 6 7 6 7 7 8 9 8 8 8 8 8 8 8 8 7 9 9 8 8 10 11 11 11 10 10 9 8 10 12 12 13 14 14 14
9 8 8 9 9 9 9 9 7 7 7 7 7 8 9 10 9 9 9 9 8 8 9 8 10 8 9 9 10 11 10 10 10 10 10 8 8 10 13 13 14 14 15
7 7 7 6 7 8 7 7 6 6 7 7 7 7 9 10 10 9 9 10 9 8 8 8 8 8 9 9 9 9 9 9 11 11 10 9 8 8 9 13 14 14 15
6 6 6 5 5 5 5 5 6 5 6 6 6 6 7 9 10 9 9 9 9 8 8 9 8 8 9 9 9 9 10 10 10 11 12 12 11 10 9 9 13 15 16
6 6 5 5 4 4 3 3 3 3 4 4 4 4 6 7 8 8 8 9 9 8 8 8 10 9 9 9 10 10 10 10 10 10 12 11 11 12 12 12 10 11 15
6 6 5 5 4 3 2 1 1 1 2 2 3 3 5 6 7 7 8 8 8 8 9 10 9 11 10 8 8 9 10 12 12 11 11 11 12 12 11 11 10 9 7
6 6 6 6 5 4 2 1 1 2 3 3 3 3 5 6 7 7 7 8 8 8 10 10 10 9 9 7 7 7 8 8 10 11 10 10 12 10 11 12 11 9 8
5 5 4 3 4 4 3 3 2 3 4 3 3 3 4 6 7 7 8 8 8 9 8 9 10 11 10 9 8 8 7 8 6 7 10 10 10 8 9 9 10 9 9
2 2 3 3 4 4 5 4 4 4 4 4 4 3 5 6 7 7 7 8 8 9 9 10 10 9 11 10 8 9 11 9 8 6 6 7 9 9 8 7 7 7 8
2 3 3 4 4 4 4 4 6 6 5 4 4 5 6 5 6 7 7 7 8 9 9 10 11 11 10 10 9 8 10 10 12 9 8 6 6 6 6 6 5 5 5
5 5 4 4 5 5 5 6 7 7 7 7 7 7 6 5 5 6 7 7 8 8 9 10 11 13 11 12 10 9 9 9 9 10 11 9 7 5 5 4 4 4 3
Wind_Direction
156 146 149 159 156 151 146 142 141 141 142 142 140 139 138 135 132 126 121 116 110 105 101 100 103 101 100 102 105 107 108 108 108 109 107 102 99 100 109 129 176 129 118
149 144 151 160 159 156 150 146 144 144 145 145 144 143 142 140 136 132 128 123 119 113 109 107 107 107 107 109 112 115 119 121 122 122 129 133 121 115 122 147 326 101 137
147 144 155 161 162 159 155 151 150 150 150 150 149 148 147 146 143 140 137 133 128 123 120 118 118 117 117 119 122 126 130 135 139 148 201 176 133 142 151 160 103 123 151
148 149 158 159 164 162 159 157 156 157 157 156 155 155 155 154 153 153 150 147 144 139 136 137 137 136 134 135 139 143 147 155 169 203 223 152 144 140 174 181 177 175 176
149 153 150 161 167 166 164 163 163 164 164 164 164 165 165 166 167 168 168 169 173 172 170 173 176 171 167 168 171 176 183 193 211 242 238 228 182 138 184 200 197 196 195
155 157 148 166 169 169 169 169 171 171 172 173 175 176 178 180 183 187 189 194 203 212 216 216 217 216 212 211 210 213 219 227 240 239 229 235 225 149 197 220 214 209 206
159 156 151 168 171 173 175 176 178 180 181 184 186 188 191 195 200 205 210 216 224 232 239 243 242 240 236 234 234 234 237 242 257 265 250 246 240 144 215 241 232 220 215
158 159 149 166 175 178 180 183 186 189 191 194 197 200 204 209 215 220 226 230 233 235 239 245 249 249 247 244 242 243 245 255 252 255 249 246 184 165 229 246 247 232 222
162 162 157 169 177 183 188 191 194 199 202 205 209 212 215 220 224 229 234 238 240 240 240 243 246 249 249 247 245 246 247 250 267 266 257 250 159 188 231 245 250 244 231
167 170 171 175 179 186 189 194 203 209 214 218 222 225 228 231 232 233 236 230 237 244 246 246 247 249 250 248 246 246 249 251 250 253 249 227 160 202 234 243 247 248 240
178 181 186 179 186 196 201 186 198 210 218 224 226 226 234 241 237 222 229 223 232 242 247 249 249 249 251 242 238 240 243 249 254 256 255 166 168 219 242 246 245 246 243
184 187 195 191 191 201 210 191 212 215 211 221 236 230 231 242 257 264 228 221 243 249 252 249 251 251 245 246 226 216 238 242 257 257 245 167 196 231 246 248 246 245 243
187 191 194 197 202 209 209 217 219 230 227 229 237 243 251 263 255 250 248 219 227 235 242 235 232 239 241 244 258 241 251 265 262 262 252 177 209 235 249 250 246 244 241
192 196 197 196 200 215 228 227 231 236 233 242 236 242 247 248 260 263 262 268 261 244 243 256 251 251 254 257 253 256 258 254 260 267 265 209 223 242 255 256 250 246 242
195 200 200 204 206 209 220 238 240 246 253 248 254 249 253 257 259 263 264 261 265 265 254 247 257 260 257 255 255 255 256 257 255 256 259 228 227 240 253 260 257 251 245
198 199 200 206 210 214 220 228 240 250 245 260 256 256 255 258 262 266 264 262 263 264 264 263 261 262 260 257 254 253 254 257 254 254 257 250 232 234 244 255 261 258 253
198 196 198 205 213 217 228 236 242 248 253 255 261 261 258 260 262 263 268 267 266 267 264 259 261 259 256 252 252 252 252 254 255 254 256 262 258 237 232 240 250 254 254
198 195 200 211 211 220 231 245 255 261 267 267 268 268 266 269 268 266 266 266 267 265 262 259 258 255 254 253 252 251 252 249 248 250 251 250 255 261 249 234 237 245 252
189 189 196 206 217 225 232 242 255 267 271 275 276 276 281 280 279 274 273 276 276 270 264 261 256 256 257 255 254 250 250 249 250 251 253 255 253 253 258 251 230 231 243
172 174 175 187 194 210 218 226 254 264 269 273 282 292 297 292 291 289 280 279 279 274 270 265 265 259 258 258 260 259 253 250 249 249 251 251 249 249 249 255 251 233 228
158 166 171 172 166 191 190 238 257 268 285 287 290 317 306 304 304 294 291 294 284 279 279 276 271 266 259 254 256 259 255 247 246 246 245 247 246 245 246 247 249 254 235
159 164 171 176 172 187 169 204 267 307 297 312 311 311 305 309 307 297 302 296 294 292 283 279 273 269 264 249 248 260 263 251 237 238 236 236 240 241 242 240 240 239 252
160 171 174 173 183 198 198 212 215 227 246 255 285 289 309 310 304 304 301 297 299 290 288 287 280 269 267 260 241 243 256 259 262 234 230 233 234 234 238 242 238 235 235
170 188 200 208 214 215 224 238 261 282 296 313 301 306 302 293 297 299 295 295 294 292 292 284 280 277 271 266 253 239 248 269 269 264 238 228 226 228 233 238 236 232 234
315 272 246 242 245 244 252 259 264 270 287 292 295 291 290 289 285 289 294 295 292 288 291 291 288 279 271 266 263 254 249 248 248 255 258 240 223 221 220 221 229 236 238
345 326 304 284 273 267 262 265 268 281 286 291 290 295 289 290 285 287 291 291 289 291 291 286 284 278 272 270 265 257 251 246 240 239 244 242 236 222 211 211 214 214 218